Date String (YYYY-MM-DD hh:mm:ss) UTC,Instrument flags,Ambient pressure (hPa),Sample flow (lpm),Bypass flow (lpm),Sample temperature (°C),Ambient temperature (°C),ASC tube jacket temperature (°C),LED temperature (°C),Box temperature (°C),Sample RH (%),Span deviation,Mass concentration (μg/m³),Mass concentration (μg/m³),Mass concentration (μg/m³)
DateTimeUTC,F1_M11,P_M11,Q1_M11,Q2_M11,T1_M11,T2_M11,T3_M11,T4_M11,T5_M11,U1_M11,ZSPAN_M11,X0_M11,X2_M11,X1_M11
2023-05-18 22:00:00,,0831.6,5.01,0.00,29.5,28.0,00.0,37.9,31.1,27.8,0000.9,0014.27,0008.13,0006.96
2023-05-18 22:01:00,,0831.6,5.00,0.00,29.5,28.0,00.0,37.9,31.1,27.8,0001.1,0012.62,0007.87,0006.74
2023-05-18 22:02:00,,0831.6,4.99,0.00,29.5,28.0,00.0,37.9,31.1,27.8,0000.4,0012.32,0007.67,0006.55
2023-05-18 22:03:00,,0831.5,5.00,0.00,29.5,28.0,00.0,37.9,31.2,28.0,0000.0,0011.81,0007.45,0006.37
2023-05-18 22:04:00,,0831.5,5.01,0.00,29.6,28.0,00.0,37.9,31.2,28.2,0000.2,0011.66,0007.34,0006.25
2023-05-18 22:05:00,,0831.5,4.98,0.00,29.6,28.0,00.0,38.0,31.1,28.2,0001.3,0011.78,0007.31,0006.17
2023-05-18 22:06:00,,0831.5,5.01,0.00,29.5,28.0,00.0,38.0,31.1,28.1,0001.7,0011.71,0007.26,0006.08
2023-05-18 22:07:00,,0831.5,5.00,0.00,29.6,28.0,00.0,38.0,31.1,28.1,0001.7,0011.67,0007.09,0005.94
2023-05-18 22:08:00,,0831.4,4.99,0.00,29.5,28.0,00.0,38.0,31.1,28.0,0001.0,0012.29,0006.84,0005.75
2023-05-18 22:09:00,,0831.5,5.00,0.00,29.5,28.0,00.0,38.0,31.1,28.0,0000.2,0012.52,0006.75,0005.61
2023-05-18 22:10:00,,0831.5,5.00,0.00,29.5,27.9,00.0,38.0,31.1,27.9,0000.1,0012.73,0006.77,0005.53
2023-05-18 22:11:00,,0831.5,5.01,0.00,29.5,27.9,00.0,38.0,31.1,28.1,0000.3,0012.96,0006.81,0005.48
2023-05-18 22:12:00,,0831.5,5.01,0.00,29.5,27.9,00.0,38.0,31.1,28.1,0000.9,0013.23,0006.84,0005.43
2023-05-18 22:13:00,,0831.4,5.01,0.00,29.5,27.9,00.0,38.0,31.1,28.1,0001.7,0013.42,0006.87,0005.37
2023-05-18 22:14:00,,0831.4,4.99,0.00,29.5,27.9,00.0,38.0,31.1,27.9,0002.0,0013.43,0006.80,0005.25
2023-05-18 22:15:00,,0831.3,5.00,0.00,29.5,27.9,00.0,38.0,31.1,27.5,0001.8,0013.01,0006.50,0005.02
2023-05-18 22:16:00,,0831.3,4.99,0.00,29.5,27.9,00.0,38.0,31.1,27.5,0000.0,0012.61,0006.20,0004.75
2023-05-18 22:17:00,,0831.3,5.00,0.00,29.5,28.0,00.0,38.0,31.1,27.3,0000.0,0012.25,0005.90,0004.49
2023-05-18 22:18:00,,0831.4,5.01,0.00,29.5,28.0,00.0,38.0,31.1,26.7,0000.0,0011.90,0005.65,0004.24
2023-05-18 22:19:00,,0831.4,5.01,0.00,29.5,28.0,00.0,38.0,31.1,26.1,0000.0,0010.84,0005.44,0004.02
2023-05-18 22:20:00,,0831.4,4.99,0.00,29.5,27.9,00.0,38.0,31.1,26.1,0000.0,0010.32,0005.26,0003.85
2023-05-18 22:21:00,,0831.4,4.99,0.00,29.5,27.9,00.0,38.0,31.1,26.6,0000.0,0009.89,0005.01,0003.69
2023-05-18 22:22:00,,0831.4,5.01,0.00,29.5,27.9,00.0,38.0,31.1,26.8,0000.0,0009.69,0004.81,0003.51
2023-05-18 22:23:00,,0831.4,5.01,0.00,29.5,27.9,00.0,38.0,31.1,26.6,0000.0,0009.66,0004.58,0003.31
2023-05-18 22:24:00,,0831.4,4.99,0.00,29.5,27.9,00.0,38.0,31.0,26.1,0000.0,0009.22,0004.29,0003.08
2023-05-18 22:25:00,,0831.5,4.99,0.00,29.5,27.8,00.0,38.0,31.0,26.0,0000.0,0008.91,0004.08,0002.82
2023-05-18 22:26:00,,0831.5,5.01,0.00,29.5,27.8,00.0,37.9,31.0,25.9,0000.0,0009.10,0003.94,0002.59
2023-05-18 22:27:00,,0831.5,5.01,0.00,29.5,27.8,00.0,37.9,31.0,25.7,0000.0,0009.07,0003.82,0002.41
2023-05-18 22:28:00,,0831.5,4.98,0.00,29.5,27.8,00.0,37.9,31.0,25.6,0000.0,0009.00,0003.74,0002.25
2023-05-18 22:29:00,,0831.5,5.00,0.00,29.5,27.8,00.0,37.9,31.0,25.5,0000.0,0008.91,0003.70,0002.17
2023-05-18 22:30:00,,0831.5,5.01,0.00,29.4,27.8,00.0,37.9,31.0,25.5,0000.0,0008.86,0003.68,0002.15
2023-05-18 22:31:00,,0831.5,5.01,0.00,29.4,27.8,00.0,37.9,31.0,25.4,0000.0,0008.98,0003.68,0002.15
2023-05-18 22:32:00,,0831.4,5.00,0.00,29.4,27.8,00.0,37.9,31.0,25.3,0000.0,0008.98,0003.64,0002.11
2023-05-18 22:33:00,,0831.4,4.99,0.00,29.4,27.8,00.0,37.9,31.0,25.4,0000.0,0008.85,0003.54,0002.04
2023-05-18 22:34:00,,0831.4,4.99,0.00,29.4,27.8,00.0,37.9,31.0,25.6,0000.0,0008.63,0003.53,0001.99
2023-05-18 22:35:00,,0831.4,4.99,0.00,29.4,27.7,00.0,37.9,31.0,25.8,0000.0,0008.62,0003.53,0001.97
2023-05-18 22:36:00,,0831.4,5.00,0.00,29.4,27.7,00.0,37.9,31.0,25.9,0000.0,0008.57,0003.50,0001.96
2023-05-18 22:37:00,,0831.5,4.99,0.00,29.4,27.7,00.0,37.9,31.0,25.9,0000.0,0008.23,0003.48,0001.94
2023-05-18 22:38:00,,0831.5,5.00,0.00,29.4,27.7,00.0,37.9,30.9,25.7,0000.0,0008.74,0003.46,0001.93
2023-05-18 22:39:00,,0831.5,5.00,0.00,29.4,27.7,00.0,37.9,31.0,25.7,0000.0,0009.06,0003.44,0001.95
2023-05-18 22:40:00,,0831.5,5.01,0.00,29.4,27.7,00.0,37.9,31.0,25.5,0000.0,0009.06,0003.43,0001.99
2023-05-18 22:41:00,,0831.6,4.98,0.00,29.4,27.8,00.0,37.9,31.0,25.5,0000.0,0008.95,0003.38,0002.00
2023-05-18 22:42:00,,0831.6,5.00,0.00,29.4,27.8,00.0,37.9,31.0,25.1,0000.0,0008.71,0003.34,0002.03
2023-05-18 22:43:00,,0831.7,5.01,0.00,29.4,27.8,00.0,37.9,31.0,25.3,0000.0,0008.65,0003.34,0002.08
2023-05-18 22:44:00,,0831.7,4.98,0.00,29.4,27.8,00.0,37.9,31.0,25.8,0000.0,0008.56,0003.36,0002.11
2023-05-18 22:45:00,,0831.7,5.00,0.00,29.4,27.9,00.0,37.9,31.0,25.9,0000.0,0008.25,0003.29,0002.13
2023-05-18 22:46:00,,0831.7,5.00,0.00,29.4,27.9,00.0,37.9,31.0,25.8,0000.0,0008.08,0003.24,0002.14
2023-05-18 22:47:00,,0831.6,4.99,0.00,29.4,27.9,00.0,37.9,31.1,26.0,0000.0,0008.01,0003.22,0002.15
2023-05-18 22:48:00,,0831.7,5.01,0.00,29.5,27.9,00.0,37.9,31.1,25.7,0000.0,0007.99,0003.23,0002.17
2023-05-18 22:49:00,,0831.7,5.00,0.00,29.5,28.0,00.0,37.9,31.1,25.9,0000.0,0007.16,0003.26,0002.22
2023-05-18 22:50:00,,0831.7,4.99,0.00,29.5,28.0,00.0,37.9,31.1,25.8,0000.0,0006.50,0003.25,0002.23
2023-05-18 22:51:00,,0831.7,5.00,0.00,29.5,28.0,00.0,37.9,31.1,26.4,0000.0,0006.15,0003.22,0002.22
2023-05-18 22:52:00,,0831.7,5.01,0.00,29.5,28.0,00.0,37.9,31.1,26.5,0000.0,0005.74,0003.19,0002.20
2023-05-18 22:53:00,,0831.7,5.00,0.00,29.5,28.0,00.0,37.9,31.1,26.5,0000.0,0005.70,0003.18,0002.20
2023-05-18 22:54:00,,0831.7,4.99,0.00,29.5,28.1,00.0,37.9,31.1,26.4,0000.0,0005.61,0003.19,0002.21
2023-05-18 22:55:00,,0831.7,5.00,0.00,29.5,28.1,00.0,37.9,31.1,26.2,0000.0,0005.72,0003.21,0002.24
2023-05-18 22:56:00,,0831.7,4.99,0.00,29.5,28.0,00.0,37.9,31.1,25.8,0000.0,0006.08,0003.23,0002.28
2023-05-18 22:57:00,,0831.7,5.00,0.00,29.5,28.0,00.0,37.9,31.1,25.7,0000.0,0006.15,0003.25,0002.33
2023-05-18 22:58:00,,0831.7,5.01,0.00,29.5,28.0,00.0,37.9,31.1,25.7,0000.0,0006.46,0003.32,0002.41
2023-05-18 22:59:00,,0831.7,5.01,0.00,29.5,27.9,00.0,37.9,31.0,25.7,0000.0,0006.52,0003.36,0002.49
